Station VDZA2 - 9454240 - Valdez, AK Image indicating link to RSS feed of recent meteorological observations for station VDZA2


Conditions at VDZA2 as of
(12:00 pm AKDT)
2000 GMT on 04/23/2024:
     

Click on the graph icon in the table below to see a time series plot of the last five days of that observation.

5-day plot - Wind Direction Wind Direction (WDIR):WSW ( 240 deg true )
5-day plot - Wind Speed Wind Speed (WSPD): 4.1 kts
5-day plot - Wind Gust Wind Gust (GST): 5.1 kts
5-day plot - Atmospheric Pressure Atmospheric Pressure (PRES):29.90 in
5-day plot - Pressure Tendency Pressure Tendency (PTDY):-0.04 in ( Falling )
5-day plot - Air Temperature Air Temperature (ATMP): 44.1 °F
5-day plot - Water Temperature Water Temperature (WTMP): 41.7 °F
5-day plot - Wind Chill Wind Chill (CHILL): 41.5 °F
5-day plot - Wind Speed at 10 Meters Wind Speed at 10 meters (WSPD10M): 3.9 kts
5-day plot - Wind Speed at 20 Meters Wind Speed at 20 meters (WSPD20M): 3.9 kts
5-day plot -  Wind Speed, Wind Gust and Atmospheric Pressure Combined plot of Wind Speed, Gust, and Air Pressure
NOS Water Level Observation Network Water Level
Previous observations
TIME
(AKDT)
5-day plot - Wind Direction
WDIR
 
5-day plot - Wind Speed
WSPD
kts
5-day plot - Wind Gust
GST
kts
5-day plot - Wave Height
WVHT
ft
5-day plot - Dominant Wave Period
DPD
sec
5-day plot - Average Wave Period
APD
sec
5-day plot - Mean Wave Direction
MWD
 
5-day plot - Atmospheric Pressure
PRES
in
5-day plot - Pressure Tendency
PTDY
in
5-day plot - Air Temperature
ATMP
°F
5-day plot - Water Temperature
WTMP
°F
5-day plot - Dew Point
DEWP
°F
5-day plot - Salinity
SAL
psu
5-day plot - Visibility
VIS
nmi
5-day plot - Tide (above MLLW)
TIDE
ft
2024-04-23 11:54 amWSW 4.1 4.1----29.90- 43.9 41.7----
2024-04-23 11:48 amWSW 2.9 4.1----29.90- 44.1 41.7----
2024-04-23 11:42 amWSW 2.9 2.9----29.90- 44.1 41.7----
2024-04-23 11:36 amWSW 2.9 4.1----29.91- 43.9 41.7----
2024-04-23 11:30 amWSW 1.9 2.9----29.91- 44.1 41.7----
2024-04-23 11:24 amWSW 1.9 2.9----29.91- 43.5 41.7----
2024-04-23 11:18 amWSW 1.9 2.9----29.91- 44.8 41.9----
2024-04-23 11:12 amWSW 2.9 4.1----29.91- 44.1 42.1----
2024-04-23 11:06 amWSW 2.9 4.1----29.91- 43.9 43.7----
2024-04-23 11:00 am W 2.9 4.1----29.91-0.03 44.1 43.7----
2024-04-23 10:54 am W 2.9 4.1----29.91- 43.2 43.7----
2024-04-23 10:48 amWSW 2.9 2.9----29.91- 43.5 43.7----
2024-04-23 10:42 am W 2.9 4.1----29.91- 42.8 43.7----
2024-04-23 10:36 amWSW 2.9 2.9----29.92- 43.3 43.9----
2024-04-23 10:30 amWSW 1.9 4.1----29.92- 43.0 44.1----
2024-04-23 10:24 am W 2.9 4.1----29.92- 42.8 44.1----
2024-04-23 10:18 am SW 1.9 1.9----29.92- 42.4 44.2----
2024-04-23 10:12 amWSW 1.0 1.9----29.92- 42.3 44.2----
2024-04-23 10:06 amWSW 1.9 2.9----29.92- 41.2 44.2----
2024-04-23 10:00 amWSW 1.9 2.9----29.92-0.04 41.4 44.4----
2024-04-23 09:54 am SW 1.9 1.9----29.92- 40.8 44.4----
2024-04-23 09:48 amWSW 1.0 1.9----29.92- 41.4 44.4----
2024-04-23 09:42 am SW 1.0 1.9----29.93- 40.5 44.2----
2024-04-23 09:36 am SW 1.0 1.9----29.93- 40.8 44.1----
2024-04-23 09:30 am SW 1.9 1.9----29.93- 40.3 44.1----
2024-04-23 09:24 am- 0.0 1.9----29.93- 41.0 43.9----
2024-04-23 09:18 am- 0.0 1.0----29.93- 43.2 43.9----
2024-04-23 09:12 am- 0.0 1.9----29.93- 41.7 43.9----
2024-04-23 09:06 am N 1.0 1.9----29.93- 40.8 43.9----
2024-04-23 09:00 am- 0.0 1.9----29.93-0.04 40.6 43.9----
2024-04-23 08:54 am NE 1.0 2.9----29.93- 40.6 43.7----
2024-04-23 08:48 am NE 1.9 1.9----29.93- 40.5 43.7----
2024-04-23 08:42 am E 1.9 1.9----29.94- 40.3 43.5----
2024-04-23 08:36 amESE 1.9 2.9----29.94- 39.7 43.5----
2024-04-23 08:30 am SE 1.9 1.9----29.94- 39.4 44.2----
2024-04-23 08:24 amESE 1.0 1.9----29.94- 39.0 44.4----
2024-04-23 08:18 amESE 1.9 1.9----29.94- 39.2 44.4----
2024-04-23 08:12 amESE 1.9 2.9----29.94- 39.7 44.4----
2024-04-23 08:06 am SE 1.0 1.9----29.94- 40.3 44.4----
2024-04-23 08:00 am E 1.0 1.9----29.94-0.04 40.5 43.9----
2024-04-23 07:54 am- 0.0 1.0----29.95- 40.8 42.8----
2024-04-23 07:48 am- 0.0 1.0----29.95- 40.5 43.0----
2024-04-23 07:42 am NE 1.0 1.9----29.95- 39.7 43.3----
2024-04-23 07:36 amENE 1.0 1.9----29.95- 39.7 43.5----
2024-04-23 07:30 am- 0.0 0.0----29.95- 40.1 43.5----
2024-04-23 07:24 am- 0.0 0.0----29.95- 39.9 43.5----
2024-04-23 07:18 am- 0.0 0.0----29.95- 39.6 43.2----
2024-04-23 07:12 am- 0.0 1.0----29.95- 39.0 43.5----
2024-04-23 07:06 amNNE 1.0 1.9----29.96- 38.5 44.1----
2024-04-23 07:00 am NE 1.9 1.9----29.96-0.04 38.5 44.1----
2024-04-23 06:54 amNNE 1.9 1.9----29.96- 38.5 44.1----
2024-04-23 06:48 am NE 1.9 2.9----29.96- 38.3 43.3----
2024-04-23 06:42 amNNE 1.9 1.9----29.96- 38.3 43.5----
2024-04-23 06:36 am N 1.9 2.9----29.96- 38.5 44.1----
2024-04-23 06:30 am N 2.9 4.1----29.97- 38.3 43.7----
2024-04-23 06:24 amNNE 2.9 2.9----29.97- 38.3 43.9----
2024-04-23 06:18 am NE 2.9 2.9----29.97- 38.3 43.9----
2024-04-23 06:12 amNNE 1.9 2.9----29.97- 38.3 43.9----
2024-04-23 06:06 amNNE 2.9 2.9----29.97- 38.1 44.1----
2024-04-23 06:00 am N 1.9 2.9----29.97-0.04 38.1 44.1----
2024-04-23 05:54 amNNE 1.0 1.9----29.98- 38.3 44.4----
2024-04-23 05:48 am NE 1.9 1.9----29.98- 38.3 44.4----
2024-04-23 05:42 am NE 1.0 1.9----29.98- 38.5 44.2----
2024-04-23 05:36 am- 0.0 1.0----29.98- 38.5 44.2----
2024-04-23 05:30 am NE 1.0 1.9----29.98- 38.5 44.4----
2024-04-23 05:24 amENE 1.9 2.9----29.98- 38.5 41.5----
2024-04-23 05:18 amENE 1.0 2.9----29.98- 38.3 41.4----
2024-04-23 05:12 am E 1.9 2.9----29.98- 38.5 41.5----
2024-04-23 05:06 am NE 1.9 2.9----29.98- 38.8 41.4----
2024-04-23 05:00 amENE 1.9 2.9----29.98-0.03 38.8 41.7----
2024-04-23 04:54 amENE 1.0 1.9----29.98- 38.8 41.5----
2024-04-23 04:48 am E 1.9 2.9----29.98- 39.0 41.7----
2024-04-23 04:42 am E 1.9 1.9----29.99- 39.4 41.5----
2024-04-23 04:36 am E 1.0 1.9----29.99- 39.2 41.2----
2024-04-23 04:30 am E 1.0 1.9----29.99- 39.4 41.2----
2024-04-23 04:24 am E 1.0 4.1----29.99- 39.7 41.2----
2024-04-23 04:18 am N 4.1 5.1----29.99- 39.7 41.2----
2024-04-23 04:12 am N 4.1 5.1----29.99- 38.5 41.2----
2024-04-23 04:06 am N 4.1 6.0----29.99- 38.7 41.4----
2024-04-23 04:00 amNNE 5.1 6.0----29.99-0.04 39.0 41.4----
2024-04-23 03:54 amNNE 2.9 4.1----29.99- 39.0 41.2----
2024-04-23 03:48 am NE 1.9 2.9----30.00- 39.0 41.2----
2024-04-23 03:42 amNNE 1.9 2.9----30.00- 38.8 41.2----
2024-04-23 03:36 am NE 1.9 2.9----30.00- 38.5 41.2----
2024-04-23 03:30 am N 2.9 4.1----30.00- 38.5 41.4----
2024-04-23 03:24 am NE 1.9 1.9----30.00- 38.7 41.4----
2024-04-23 03:18 am NE 1.9 2.9----30.01- 38.7 41.2----
2024-04-23 03:12 am NE 1.9 2.9----30.01- 38.5 41.4----
2024-04-23 03:06 am NE 1.9 2.9----30.01- 38.8 41.2----
2024-04-23 03:00 amENE 1.9 1.9----30.01-0.03 38.8 41.4----
2024-04-23 02:54 amENE 1.9 1.9----30.01- 39.0 41.4----
2024-04-23 02:48 am- 0.0 1.0----30.01- 39.0 41.4----
2024-04-23 02:42 am- 0.0 1.0----30.01- 39.2 41.5----
2024-04-23 02:36 am- 0.0 1.0----30.01- 39.2 41.5----
2024-04-23 02:30 amENE 1.0 1.0----30.01- 39.2 41.7----
2024-04-23 02:24 amENE 1.0 1.9----30.01- 39.4 41.5----
2024-04-23 02:18 am NE 1.0 2.9----30.01- 39.2 41.5----
2024-04-23 02:12 am NE 1.9 1.9----30.01- 39.0 41.5----
2024-04-23 02:06 amNNE 1.9 1.9----30.01- 39.2 41.5----
2024-04-23 02:00 amNNE 1.9 2.9----30.01-0.03 39.2 41.5----
2024-04-23 01:54 amNNE 1.9 2.9----30.02- 39.2 41.4----
2024-04-23 01:48 am NE 1.9 2.9----30.02- 39.2 41.4----
2024-04-23 01:42 amNNE 2.9 2.9----30.02- 39.2 41.5----
2024-04-23 01:36 am NE 1.9 1.9----30.02- 39.2 41.5----
2024-04-23 01:30 am NE 1.0 1.9----30.02- 39.2 41.7----
2024-04-23 01:24 am E 1.0 1.9----30.03- 39.4 41.9----
2024-04-23 01:18 am E 1.9 2.9----30.03- 39.4 41.7----
2024-04-23 01:12 amENE 1.0 2.9----30.03- 39.6 41.7----
2024-04-23 01:06 amNNE 1.9 2.9----30.03- 39.2 41.5----
2024-04-23 01:00 am NE 1.9 2.9----30.03-0.02 39.2 41.5----
2024-04-23 12:54 am NE 1.9 2.9----30.03- 39.2 41.5----
2024-04-23 12:48 am NE 2.9 2.9----30.03- 39.2 41.5----
2024-04-23 12:42 am NE 1.9 2.9----30.03- 39.4 41.5----
2024-04-23 12:36 amNNE 1.9 1.9----30.03- 39.4 42.1----
2024-04-23 12:30 am NE 1.9 2.9----30.03- 39.4 41.7----
2024-04-23 12:24 am NE 1.9 1.9----30.03- 39.6 41.4----
2024-04-23 12:18 amNNE 1.9 2.9----30.03- 39.4 41.5----
2024-04-23 12:12 amNNE 1.9 2.9----30.03- 39.4 41.7----
2024-04-23 12:06 amNNE 2.9 4.1----30.03- 39.4 41.7----
2024-04-23 12:00 am NE 2.9 2.9----30.04-0.01 39.6 41.9----
2024-04-22 11:54 pmENE 1.9 4.1----30.04- 39.6 41.9----
2024-04-22 11:48 pm NE 1.9 2.9----30.04- 39.7 42.1----
2024-04-22 11:42 pmENE 2.9 4.1----30.04- 39.7 42.3----
2024-04-22 11:36 pm E 1.9 2.9----30.04- 39.7 42.3----
2024-04-22 11:30 pm NE 1.9 2.9----30.04- 40.8 42.4----
2024-04-22 11:24 pmNNE 1.9 2.9----30.04- 40.8 42.4----
2024-04-22 11:18 pmNNE 1.9 2.9----30.04- 40.8 42.6----
2024-04-22 11:12 pmNNE 2.9 2.9----30.04- 41.2 42.4----
2024-04-22 11:06 pmNNE 1.9 2.9----30.04- 41.2 42.4----
2024-04-22 11:00 pmNNE 1.9 1.9----30.04-0.01 41.4 42.8----
2024-04-22 10:54 pmENE 1.0 1.0----30.04- 41.2 42.4----
2024-04-22 10:48 pm- 0.0 1.0----30.04- 41.4 42.4----
2024-04-22 10:42 pmNNE 1.0 1.9----30.04- 41.7 42.6----
2024-04-22 10:36 pmNNE 1.0 1.9----30.04- 41.7 42.4----
2024-04-22 10:30 pmNNE 1.0 1.0----30.05- 41.5 42.4----
2024-04-22 10:24 pm- 0.0 1.0----30.05- 41.5 42.4----
2024-04-22 10:18 pm- 0.0 2.9----30.05- 41.5 42.3----
2024-04-22 10:12 pmNNW 1.9 2.9----30.05- 41.5 42.3----
2024-04-22 10:06 pm NW 1.9 2.9----30.05- 42.3 42.3----
2024-04-22 10:00 pm NW 1.9 2.9----30.05-0.01 42.4 42.4----
2024-04-22 09:54 pm NW 2.9 2.9----30.05- 42.6 43.0----
2024-04-22 09:48 pmNNW 2.9 4.1----30.05- 42.1 42.4----
2024-04-22 09:42 pmNNW 2.9 5.1----30.05- 42.1 42.6----
2024-04-22 09:36 pmNNW 1.9 5.1----30.05- 41.9 42.8----
2024-04-22 09:30 pm NW 4.1 5.1----30.05- 42.3 42.8----
2024-04-22 09:24 pm NW 2.9 5.1----30.05- 41.9 42.8----
2024-04-22 09:18 pm NW 2.9 5.1----30.05- 41.9 42.8----
2024-04-22 09:12 pm NW 2.9 5.1----30.05- 41.7 42.8----
2024-04-22 09:06 pm NW 4.1 5.1----30.05- 42.3 42.8----
2024-04-22 09:00 pmNNW 2.9 4.1----30.05-0.02 42.6 43.0----
2024-04-22 08:54 pmNNW 2.9 5.1----30.05- 42.4 43.0----
2024-04-22 08:48 pm N 4.1 6.0----30.05- 42.8 43.0----
2024-04-22 08:42 pm NW 2.9 5.1----30.05- 42.6 43.2----
2024-04-22 08:36 pm NW 2.9 5.1----30.05- 42.4 43.2----
2024-04-22 08:30 pm NW 2.9 5.1----30.05- 42.6 43.5----
2024-04-22 08:24 pmWNW 2.9 5.1----30.05- 42.4 43.3----
2024-04-22 08:18 pmWNW 1.9 6.0----30.05- 42.3 43.5----
2024-04-22 08:12 pmNNW 4.1 6.0----30.05- 42.3 43.3----
2024-04-22 08:06 pmNNW 2.9 6.0----30.05- 42.4 43.5----
2024-04-22 08:00 pm NW 4.1 5.1----30.05-0.03 42.8 43.5----
2024-04-22 07:54 pm NW 2.9 4.1----30.05- 42.8 44.1----
2024-04-22 07:48 pm NW 2.9 4.1----30.05- 42.8 43.9----
2024-04-22 07:42 pm- 0.0 4.1----30.06- 43.3 43.9----
2024-04-22 07:36 pmWNW 1.9 4.1----30.06- 43.5 43.9----
2024-04-22 07:30 pm NW 1.9 5.1----30.06- 43.2 44.1----
2024-04-22 07:24 pmNNW 1.9 2.9----30.06- 43.9 44.2----
2024-04-22 07:18 pmWNW 1.9 2.9----30.06- 43.5 44.4----
2024-04-22 07:12 pmWNW 1.9 4.1----30.06- 43.9 44.4----
2024-04-22 07:06 pmNNW 4.1 5.1----30.06- 43.9 44.6----
2024-04-22 07:00 pm W 1.9 2.9----30.06-0.04 45.1 44.8----
2024-04-22 06:54 pmWSW 1.0 1.9----30.06- 45.9 44.6----
2024-04-22 06:48 pm SW 1.0 1.0----30.06- 45.5 44.4----
2024-04-22 06:42 pm- 0.0 1.0----30.06- 45.3 41.7----
2024-04-22 06:36 pm- 0.0 1.9----30.07- 45.3 41.7----
2024-04-22 06:30 pmSSW 1.0 1.9----30.07- 45.1 41.7----
2024-04-22 06:24 pm S 1.0 1.9----30.07- 45.1 41.7----
2024-04-22 06:18 pm- 0.0 1.0----30.07- 46.0 41.7----
2024-04-22 06:12 pm- 0.0 1.0----30.07- 46.0 41.5----
2024-04-22 06:06 pm- 0.0 1.0----30.07- 45.5 41.7----
2024-04-22 06:00 pmSSE 1.0 1.0----30.07-0.04 45.9 41.7----
2024-04-22 05:54 pm- 0.0 1.0----30.07- 46.2 41.5----
2024-04-22 05:48 pmSSW 1.0 1.9----30.07- 45.9 41.5----
2024-04-22 05:42 pm SW 1.0 1.9----30.07- 46.2 41.5----
2024-04-22 05:36 pm- 0.0 1.0----30.07- 46.2 41.5----
2024-04-22 05:30 pm- 0.0 1.0----30.08- 46.6 41.7----
2024-04-22 05:24 pm- 0.0 1.0----30.08- 46.6 41.5----
2024-04-22 05:18 pm SW 1.0 1.9----30.08-- 41.7----
2024-04-22 05:12 pm- 0.0 1.9----30.08-- 41.7----
2024-04-22 05:06 pm- 0.0 1.0----30.08-- 41.7----
2024-04-22 05:00 pm SW 1.9 1.9----30.09-0.03 45.7 41.9----
2024-04-22 04:54 pm S 1.0 1.9----30.09- 45.3 41.7----
2024-04-22 04:48 pm SE 1.9 1.9----30.09-- 41.9----
2024-04-22 04:42 pm- 0.0 1.0----30.09-- 41.5----
2024-04-22 04:36 pm- 0.0 1.0----30.09-- 41.5----
2024-04-22 04:30 pm- 0.0 1.9----30.09- 45.3 41.5----
2024-04-22 04:24 pm S 1.0 2.9----30.09- 44.6 41.4----
2024-04-22 04:18 pm--------- 44.8 41.4----
2024-04-22 04:12 pm--------- 44.8 41.4----
2024-04-22 04:06 pm--------- 44.8 41.4----
2024-04-22 04:00 pmSSW 1.9 4.1----30.10-0.01 44.4 41.4----
2024-04-22 03:54 pm SW 2.9 4.1----30.10- 44.4 41.5----
2024-04-22 03:48 pmSSW 2.9 4.1----30.10- 44.4 41.5----
2024-04-22 03:42 pm SW 1.9 2.9----30.10- 45.1 41.7----
2024-04-22 03:36 pm W 1.9 2.9----30.10- 46.0 41.7----
2024-04-22 03:30 pmWSW 2.9 2.9----30.10- 44.8 41.5----
2024-04-22 03:24 pmWSW 1.9 5.1----30.10- 45.0 41.7----
2024-04-22 03:18 pmWSW 2.9 4.1----30.10- 45.3 41.7----
2024-04-22 03:12 pmWSW 2.9 4.1----30.11- 45.9 41.7----
2024-04-22 03:06 pmWSW 1.9 2.9----30.11- 46.4 41.7----
2024-04-22 03:00 pmWSW 1.9 2.9----30.11-0.01 45.9 41.7----
2024-04-22 02:54 pm SW 2.9 2.9----30.11- 45.0 41.5----
2024-04-22 02:48 pmWSW 1.9 2.9----30.11- 45.9 41.7----
2024-04-22 02:42 pm SW 1.9 2.9----30.11- 44.8 41.4----
2024-04-22 02:36 pm SW 1.9 2.9----30.11- 44.6 41.4----
2024-04-22 02:30 pmWSW 2.9 4.1----30.11- 45.0 41.4----
2024-04-22 02:24 pmWSW 2.9 4.1----30.11- 45.0 41.4----
2024-04-22 02:18 pmWSW 2.9 2.9----30.11- 44.6 41.4----
2024-04-22 02:12 pmWSW 2.9 4.1----30.11- 44.6 41.4----
2024-04-22 02:06 pmWSW 2.9 4.1----30.11- 44.8 41.4----
2024-04-22 02:00 pmWSW 2.9 4.1----30.11-0.01 44.8 41.4----
2024-04-22 01:54 pmWSW 2.9 4.1----30.11- 44.6 41.5----
2024-04-22 01:48 pmWSW 2.9 4.1----30.11- 44.1 41.9----
2024-04-22 01:42 pmWSW 2.9 4.1----30.11- 44.4 41.9----
2024-04-22 01:36 pmWSW 2.9 4.1----30.11- 43.7 41.7----
2024-04-22 01:30 pmWSW 2.9 4.1----30.11- 43.5 41.4----
2024-04-22 01:24 pmWSW 4.1 4.1----30.11- 43.0 41.4----
2024-04-22 01:18 pm SW 2.9 5.1----30.11- 43.0 41.4----
2024-04-22 01:12 pmWSW 2.9 4.1----30.11- 43.3 41.5----
2024-04-22 01:06 pmWSW 2.9 2.9----30.11- 43.7 41.4----
2024-04-22 01:00 pmWSW 1.9 2.9----30.11+0.00 44.1 41.7----
2024-04-22 12:54 pm SW 1.9 2.9----30.12- 42.8 41.9----
2024-04-22 12:48 pmWSW 1.9 2.9----30.12- 43.2 41.9----
2024-04-22 12:42 pmWSW 1.9 2.9----30.12- 43.2 41.9----
2024-04-22 12:36 pmSSW 1.9 1.9----30.12- 42.6 41.7----
2024-04-22 12:30 pm S 1.9 2.9----30.12- 42.6 41.9----
2024-04-22 12:24 pmSSW 1.9 2.9----30.12- 42.4 41.9----
2024-04-22 12:18 pm S 2.9 2.9----30.11- 42.3 41.7----
2024-04-22 12:12 pmSSW 1.0 1.9----30.11- 42.6 41.7----
2024-04-22 12:06 pmWSW 1.0 1.9----30.12- 43.0 42.3----
2024-04-22 12:00 pmWSW 1.9 2.9----30.12+0.00 42.4 41.7----
2024-04-22 11:54 amWSW 2.9 2.9----30.12- 41.7 42.6----